Terminal Aerodrome Forecast
Issued by NWS

Home | Current Version | Previous Version | Graphics & Text | Print | Product List | Glossary On
Versions: 1 2 3 4 5 6 7 8 9 10 11 12 13 14
321
FTUS45 KGGW 091720
TAFSDY
TAF
KSDY 091720Z 0918/1018 31008KT P6SM OVC080
     FM100400 25004KT P6SM BKN200
     FM101500 31008KT P6SM SCT030 SCT200
      AMD LTD TO CLD VIS AND WIND=

USA.gov is the U.S. government's official web portal to all federal, state and local government web resources and services.